Weather in Fakel

Russia / Udmurt Republic     57°37′50″N   53°01′26″E
temp.,
°C
wind,
m/s
gust,
m/s
humid.,
%
clouds,
%
prec.,
mm/h
press.,
hPa
HPBL,
m
12 may, wed
wed1201:00+12e24884 0.0 102987
04:00+11ene249026 0.0 103062
07:00+15e347699 0.0 1030254
10:00+20e22585 0.0 1029635
13:00+24e11425 0.0 10281528
16:00+25nnw22380 0.0 10281889
19:00+21n23535 0.0 102755
22:00+17e225676 0.0 102711
13 may, thu
thu1301:00+15se22667 0.0 102811
04:00+14se11765 0.0 102810
07:00+18se22630 0.0 1028148
10:00+24sse23430 0.0 1028886
13:00+26sse44310 0.0 10262412
16:00+26ssw45275 0.0 10252408
19:00+22ssw3545100 0.0 1025110
22:00+17s2255100 0.0 102528
14 may, fri
fri1401:00+16s346125 0.0 102559
04:00+16sse386593 0.0 1024158
07:00+18s31063100 0.1 1024287
10:00+24s583834 0.2 10231030
13:00+26ssw7113198 0.0 10221967
16:00+26sw61141100 0.0 10211896
19:00+23sw3857100 0.0 1020276
22:00+19sw3771100 0.0 1021131
15 may, sat
sat1501:00+16ssw367683 0.0 102099
04:00+15ssw3875100 0.0 1021146
07:00+19ssw4106099 0.0 1021325
10:00+24sw584298 0.0 1020788
13:00+27sw61033100 0.0 10191471
16:00+27sw5103359 0.0 10191605
19:00+24sw51042100 0.0 1018469
22:00+20sw6154944 0.0 1017503
16 may, sun
sun1601:00+17sw412565 0.0 1018273
04:00+15ssw311635 0.0 1018200
07:00+19ssw411555 0.0 1018332
10:00+25sw59365 0.0 1017816
13:00+28sw79285 0.0 10162987
16:00+29sw692915 0.0 10153268
19:00+25sw5104169 0.0 1014517
22:00+19ssw4125916 0.0 1014306